This is the latest recevied weather packets stored in our database for station/object WB4YDL. If no packets are shown the sender has not sent any weather packets the latest 10 day(s).
| Time | Temp. | Humidity | Pressure | Rain* | Wind** | Luminosity | Snow |
|---|---|---|---|---|---|---|---|
| 1778179219 | 18.33° C | 42% | 1011.7 hPa | 0 mm | - | 818 W/m² | - |
| 1778178914 | 17.78° C | 47% | 1011.7 hPa | 0 mm | - | 826 W/m² | - |
| 1778178612 | 17.78° C | 46% | 1011.6 hPa | 0 mm | - | 831 W/m² | - |
| 1778178308 | 17.78° C | 50% | 1011.9 hPa | 0 mm | - | 835 W/m² | - |
| 1778178004 | 17.78° C | 46% | 1011.6 hPa | 0 mm | - | 838 W/m² | - |
| 1778177701 | 18.33° C | 44% | 1011.5 hPa | 0 mm | - | 839 W/m² | - |
| 1778177396 | 17.78° C | 45% | 1011.7 hPa | 0 mm | - | 842 W/m² | - |
| 1778177093 | 17.22° C | 46% | 1012 hPa | 0 mm | - | 846 W/m² | - |
| 1778176789 | 18.33° C | 45% | 1011.9 hPa | 0 mm | - | 847 W/m² | - |
| 1778176486 | 17.22° C | 50% | 1011.8 hPa | 0 mm | - | 850 W/m² | - |
| 1778176184 | 17.78° C | 48% | 1012 hPa | 0 mm | - | 850 W/m² | - |
| 1778175881 | 17.78° C | 50% | 1011.9 hPa | 0 mm | - | 848 W/m² | - |
| 1778175578 | 17.22° C | 50% | 1012.1 hPa | 0 mm | - | 848 W/m² | - |
| 1778175275 | 17.22° C | 49% | 1012 hPa | 0 mm | - | 850 W/m² | - |
| 1778174973 | 17.78° C | 46% | 1012.4 hPa | 0 mm | - | 849 W/m² | - |
| 1778174669 | 17.22° C | 50% | 1012.3 hPa | 0 mm | - | 847 W/m² | - |
| 1778174365 | 17.22° C | 49% | 1012.3 hPa | 0 mm | - | 842 W/m² | - |
| 1778174061 | 17.22° C | 49% | 1012.4 hPa | 0 mm | - | 842 W/m² | - |
| 1778173759 | 17.78° C | 54% | 1012.3 hPa | 0 mm | - | 839 W/m² | - |
| 1778173455 | 17.78° C | 44% | 1012.4 hPa | 0 mm | - | 837 W/m² | - |
| 1778173152 | 17.78° C | 46% | 1012.1 hPa | 0 mm | - | 831 W/m² | - |
| 1778172847 | 17.22° C | 53% | 1012.5 hPa | 0 mm | - | 829 W/m² | - |
| 1778172543 | 17.22° C | 53% | 1012.7 hPa | 0 mm | - | 824 W/m² | - |
| 1778172241 | 17.22° C | 47% | 1012.7 hPa | 0 mm | - | 819 W/m² | - |
| 1778171938 | 16.67° C | 49% | 1012.7 hPa | 0 mm | - | 813 W/m² | - |
* Rain latest hour (hover to see other rain measurements)
** Current wind speed in m/s (hover to see current wind gust speed)